NANOZOND 1 (RS49S)

Last updated on Wed Sep 17 2025 00:03:09 GMT+0000 (Coordinated Universal Time)

1 57190U 23091AA 25259.60235905 .00036998 00000+0 88944-3 0 9990 2 57190 97.5451 325.9639 0004383 303.4542 56.6285 15.41221850123233
UTC large
Height (km)
Speed (km/s)
/
Latitude / Longitude
Inclination (degrees)
Orbital Period (minutes)
Azimuth
Elevation
Range (km)
Doppler Factor

Next 0 passes for location: London (51.5072 / 0.1276)

Sorry there are no passes over London.